Probability
0 0 0 0 0 0 0 0 0 0 0 0 0 0 0 0 0 0 0 0 0 0 0 0 0 0 0 0 0 0 0 0 0 0 0 0 0 0 0 0 0 0 0
0 0 0 0 0 0 0 0 0 0 0 0 0 0 0 0 0 0 0 0 0 0 0 0 0 0 0 0 0 0 0 0 0 0 0 0 0 0 0 0 0 0 0
0 0 0 0 0 0 0 0 0 0 0 0 0 0 0 0 0 0 0 0 0 0 0 0 0 0 0 0 0 0 0 0 0 0 0 0 0 0 0 0 0 0 0
0 0 0 0 0 0 0 0 0 0 0 0 0 0 0 0 0 0 0 0 0 0 0 0 0 0 0 0 0 0 0 0 0 0 0 0 0 0 0 0 0 0 0
0 0 0 0 0 0 0 0 0 0 0 0 0 0 0 0 0 0 0 0 0 0 0 0 0 0 0 0 0 0 0 0 0 0 0 0 0 0 0 0 0 0 0
0 0 0 0 0 0 0 0 0 0 0 0 0 0 0 0 0 0 0 0 0 0 0 0 0 0 0 0 0 0 0 0 0 0 0 0 0 0 0 0 0 0 0
0 0 0 0 0 0 0 0 0 0 0 0 0 0 0 0 0 0 0 0 0 0 0 0 0 0 0 0 0 0 0 0 0 0 0 0 0 0 0 0 0 0 0
0 0 0 0 0 0 0 0 0 0 0 0 0 0 0 0 0 0 0 0 0 0 0 0 0 0 0 0 0 0 0 0 0 0 0 0 0 0 0 0 0 0 0
1 0 0 0 0 0 0 0 0 0 0 0 0 0 0 0 0 0 0 0 0 0 0 0 0 0 0 0 0 0 0 0 0 0 0 0 0 0 0 0 0 0 0
2 1 0 0 0 0 0 0 0 0 0 0 0 0 0 0 0 0 0 0 0 0 0 0 0 0 0 0 0 0 0 0 0 0 0 0 0 0 0 0 0 0 0
2 1 0 0 0 0 0 0 0 0 0 0 0 0 0 0 0 0 0 0 0 0 0 0 0 0 0 0 0 0 0 0 0 0 0 0 0 0 0 0 0 0 0
2 1 0 0 0 0 0 0 0 0 0 0 0 0 0 0 0 0 0 0 0 0 0 0 0 0 0 0 0 0 0 0 0 0 0 0 0 0 0 0 0 0 0
2 1 0 0 0 0 0 0 0 0 0 0 0 0 0 0 0 0 0 0 0 0 0 0 0 0 0 0 0 0 0 0 0 0 0 0 0 0 0 0 0 0 0
2 1 0 0 0 0 0 0 0 0 0 0 0 0 0 0 0 0 0 0 0 0 0 0 0 0 0 0 0 0 0 0 0 0 0 0 0 0 0 0 0 0 0
2 2 1 0 0 0 0 0 0 0 0 0 0 0 0 0 0 0 0 0 0 0 0 0 0 0 0 0 0 0 0 0 0 0 0 0 0 0 0 0 0 0 0
1 2 2 1 0 0 0 0 0 0 0 0 0 0 0 0 0 0 0 0 0 0 0 0 0 0 0 0 0 0 0 0 0 0 0 0 0 0 0 0 0 0 0
0 1 2 2 1 0 0 0 0 0 0 0 0 0 0 0 0 0 0 0 0 0 0 0 0 0 0 0 0 0 0 0 0 0 0 0 0 0 0 0 0 0 0
0 1 2 3 2 1 0 0 0 0 0 0 0 0 0 0 0 0 0 0 0 0 0 0 0 0 0 0 0 0 0 0 0 0 0 0 0 0 0 0 0 0 0
0 0 1 2 3 2 1 0 0 0 0 0 0 0 0 0 0 0 0 0 0 0 0 0 0 0 0 0 0 0 0 0 0 0 0 0 0 0 0 0 0 0 0
0 0 0 1 2 2 1 1 0 0 0 0 0 0 0 0 0 0 0 0 0 0 0 0 0 0 0 0 0 0 0 0 0 0 0 0 0 0 0 0 0 0 0
0 0 0 0 1 2 3 2 1 1 0 0 0 0 0 0 0 0 0 0 0 0 0 0 0 0 0 0 0 0 0 0 0 0 0 0 0 0 0 0 0 0 0
0 0 0 0 1 2 3 3 2 1 0 0 0 0 0 0 0 0 0 0 0 0 0 0 0 0 0 0 0 0 0 0 0 0 0 0 0 0 0 0 0 0 0
0 0 0 0 0 1 1 2 1 1 0 0 0 0 0 0 0 0 0 0 0 0 0 0 0 0 0 0 0 0 0 0 0 0 0 0 0 0 0 0 0 0 0
0 0 0 0 0 0 1 1 0 0 0 0 0 0 0 0 0 0 0 0 0 0 0 0 0 0 0 0 0 0 0 0 0 0 0 0 0 0 0 0 0 0 0
0 0 0 0 0 1 1 1 0 0 0 0 0 0 0 0 0 0 0 0 0 0 0 0 0 0 0 0 0 0 0 0 0 0 0 0 0 0 0 0 0 0 0
0 0 0 0 0 1 2 2 1 0 0 0 0 0 0 0 0 0 0 0 0 0 0 0 0 0 0 0 0 0 0 0 0 0 0 0 0 0 0 0 0 0 0
Wind_Speed
6 8 13 13 14 13 13 13 13 12 12 12 12 13 13 13 13 13 13 13 13 13 13 13 13 13 13 12 12 12 12 12 12 11 12 12 12 12 12 11 10 6 11
10 10 13 13 14 14 13 13 13 12 12 12 12 13 13 13 12 12 12 12 12 12 12 11 11 11 11 11 10 10 10 10 10 9 9 9 10 11 11 10 9 6 10
13 11 12 13 14 14 13 13 12 12 12 12 12 12 12 12 12 12 11 11 11 11 11 10 10 10 9 9 8 8 8 8 8 7 7 3 5 9 9 8 8 8 8
13 11 11 12 14 14 14 13 12 12 12 12 12 12 12 11 11 11 10 10 10 10 9 9 9 9 8 7 7 7 8 8 7 6 3 2 2 6 7 7 6 6 6
12 10 11 13 14 14 14 13 12 12 12 12 12 12 11 11 10 10 9 9 9 9 8 8 8 8 7 6 5 6 7 8 8 5 2 2 1 4 5 5 5 4 4
11 10 11 13 14 14 13 13 12 12 12 12 12 12 11 11 10 9 9 8 8 8 7 7 7 6 5 4 3 4 6 7 6 3 2 1 1 2 3 3 3 2 2
10 9 11 13 13 13 13 13 12 12 12 12 12 11 11 10 10 9 9 8 7 7 7 7 6 5 4 3 2 3 5 6 3 2 1 0 1 2 3 2 2 1 1
12 10 10 12 12 12 12 11 11 11 11 11 11 11 10 10 10 9 8 8 8 7 6 6 5 4 3 1 1 2 3 4 3 2 1 2 4 4 4 3 3 3 3
11 10 8 8 10 11 11 10 10 9 9 10 10 10 9 9 9 8 8 8 8 7 7 6 5 4 4 3 3 3 4 4 2 2 3 2 6 6 6 5 5 6 6
9 9 9 7 7 7 7 10 10 10 9 9 9 9 9 9 8 8 7 7 8 8 7 7 6 5 5 5 5 5 5 5 3 3 2 4 8 8 8 8 8 8 8
8 8 8 8 7 7 7 8 9 10 10 9 8 9 8 5 5 5 7 7 8 8 8 8 7 7 6 5 6 7 5 3 3 3 3 7 9 10 10 10 10 10 11
11 10 9 9 9 8 7 6 5 5 6 6 5 6 5 4 4 5 7 9 8 8 8 8 8 7 5 3 4 6 3 4 4 3 4 10 11 12 12 12 12 12 13
10 10 10 10 9 9 6 5 4 3 4 5 6 6 5 4 3 4 3 4 5 6 4 5 5 3 3 3 3 3 4 4 3 3 5 10 12 13 14 13 14 14 14
9 10 10 10 9 9 7 6 5 4 4 5 6 7 5 4 4 4 3 4 3 3 4 3 3 4 4 5 5 5 5 4 4 3 5 10 12 14 15 15 15 15 15
10 10 10 10 10 9 8 6 7 6 6 6 6 7 7 5 5 5 4 4 4 4 4 4 4 5 5 5 5 6 6 6 6 5 4 9 12 14 16 17 17 17 17
11 11 10 10 10 9 8 7 6 6 6 6 6 7 8 6 6 5 5 5 5 5 5 5 5 5 5 4 6 6 6 6 6 6 6 7 11 14 16 18 18 18 18
11 10 11 11 10 10 10 9 6 6 6 6 6 7 8 8 7 6 5 5 5 5 5 4 5 4 4 4 6 6 6 6 6 7 6 5 6 10 14 17 18 18 18
10 10 11 10 11 11 10 8 6 6 6 6 5 5 7 8 7 6 5 5 5 4 4 4 4 4 4 4 5 5 5 5 6 7 6 6 5 6 8 13 16 18 18
12 11 11 11 11 11 10 7 6 5 6 5 5 5 6 8 7 6 5 5 5 4 5 5 4 4 4 5 5 5 5 5 6 6 7 8 7 7 6 8 12 13 17
10 11 11 11 11 9 7 5 4 5 5 5 6 6 7 7 7 7 5 5 5 4 5 5 5 4 4 4 4 5 5 6 6 6 8 7 6 7 6 7 6 7 12
8 10 10 11 10 8 6 6 6 7 6 5 6 6 7 7 7 7 6 5 6 6 6 6 5 5 5 2 3 4 5 7 7 7 6 6 6 6 6 6 5 5 5
9 9 10 10 9 9 8 7 5 4 4 5 4 5 7 7 7 7 7 6 6 6 6 6 5 4 4 3 3 2 4 4 4 5 5 5 6 4 5 6 6 6 5
7 8 8 9 9 9 9 5 3 2 1 3 4 5 6 7 7 7 8 7 6 6 6 7 6 7 6 4 4 4 3 4 4 3 3 4 4 4 5 5 6 6 6
8 7 7 7 8 8 8 7 8 7 7 7 5 5 5 6 7 7 7 7 7 6 6 6 6 6 6 5 4 5 5 3 3 4 3 3 4 5 5 5 5 6 6
5 5 5 5 5 6 7 8 9 8 7 4 3 4 4 5 6 6 6 6 7 6 6 6 6 6 6 6 5 3 5 5 6 6 7 5 4 4 4 5 5 5 5
3 3 4 5 5 5 6 7 8 9 7 5 5 5 4 4 4 5 6 6 6 6 6 7 6 7 6 7 6 5 4 4 5 6 8 6 6 5 5 4 4 4 4
Wind_Direction
154 159 152 149 143 139 135 131 129 125 122 119 116 113 109 107 104 104 101 96 94 91 90 88 86 84 83 81 79 76 73 70 67 68 71 77 79 79 77 73 69 60 73
151 157 151 149 144 140 138 135 133 131 128 125 122 120 116 112 109 106 105 102 99 96 95 94 92 89 87 84 80 76 72 67 63 64 64 70 79 80 78 75 77 76 75
146 152 149 148 146 143 140 139 139 137 134 130 128 126 123 119 117 113 110 109 105 102 101 101 99 96 91 85 79 72 64 57 57 61 62 54 70 82 81 76 73 76 75
147 151 151 148 148 146 144 144 142 139 137 137 134 131 129 127 124 121 118 116 113 110 108 108 106 102 97 89 78 63 50 43 46 59 64 52 54 83 83 80 74 73 73
146 150 152 152 151 150 148 147 146 145 144 143 141 139 137 135 131 129 126 123 122 119 116 114 113 106 100 91 74 51 37 33 41 56 83 78 63 91 90 86 80 74 68
147 150 155 155 155 155 154 153 153 153 152 149 148 147 146 144 141 138 137 134 132 130 126 123 123 116 107 95 69 38 26 25 40 44 81 106 101 117 112 110 107 103 91
149 153 159 157 158 160 161 160 159 160 159 156 155 154 154 153 152 152 151 149 148 142 138 136 136 132 129 118 70 19 12 16 41 46 92 210 230 181 163 162 170 183 200
152 155 160 160 160 162 164 165 164 164 163 163 163 162 161 163 163 163 163 163 163 160 156 157 156 156 161 171 257 324 343 0 14 352 275 239 239 219 211 210 216 228 241
152 155 160 163 164 166 167 168 168 168 167 168 169 168 167 169 172 171 172 177 179 177 178 178 179 187 205 228 257 283 300 316 333 295 267 247 246 241 237 232 235 241 248
155 161 165 167 167 168 171 175 174 174 173 173 174 173 174 177 178 179 182 191 195 194 194 195 196 209 224 239 255 269 279 297 298 295 266 253 249 248 251 248 248 251 254
165 170 171 173 175 174 176 183 181 181 182 180 180 182 179 183 185 188 196 200 207 206 205 209 212 221 232 246 255 262 272 271 278 278 263 259 255 252 256 260 257 258 258
179 181 179 179 181 181 186 181 184 187 186 185 182 185 184 187 194 198 206 210 213 213 216 220 222 228 234 247 263 267 261 262 265 265 261 262 259 259 262 266 265 263 263
182 182 184 184 184 183 186 180 185 186 185 191 192 192 190 190 198 202 201 213 217 217 220 230 232 228 227 234 248 253 253 256 256 260 263 262 262 265 269 271 271 270 267
184 191 188 186 186 188 185 185 185 187 190 196 198 196 190 194 202 201 201 202 202 203 206 216 222 229 234 239 242 249 251 247 248 251 257 260 261 266 271 274 275 274 272
193 197 193 188 190 189 187 190 190 193 196 198 198 201 196 197 203 203 205 203 204 202 204 213 221 229 237 244 245 246 249 247 249 247 255 257 259 264 271 275 277 278 276
201 202 197 193 193 188 190 193 193 194 195 197 200 201 199 200 201 201 204 205 208 206 208 212 217 224 233 238 248 248 248 248 249 249 250 257 258 261 268 274 277 279 279
204 202 199 198 194 192 195 197 196 195 193 198 203 202 202 202 201 201 203 207 209 207 208 213 222 224 235 241 249 252 252 251 253 254 255 254 257 259 261 268 274 278 280
202 200 202 199 196 199 200 199 199 197 196 201 199 200 204 204 201 200 206 212 204 199 204 211 216 222 235 241 249 254 253 255 257 257 257 257 255 259 261 264 268 273 277
203 200 201 199 199 201 201 200 200 197 203 204 200 204 207 206 204 203 210 213 203 206 210 215 216 213 231 243 250 255 254 254 256 258 261 260 257 256 256 264 262 265 272
204 200 200 199 200 197 193 192 196 205 211 208 209 211 207 209 207 208 214 214 207 212 218 217 222 220 226 238 254 261 258 256 254 255 260 262 260 258 257 260 263 266 266
205 200 198 197 197 187 184 191 199 211 212 212 215 212 209 210 208 210 217 214 210 217 221 217 217 226 233 223 251 277 271 256 255 255 254 256 261 262 261 259 258 259 267
206 204 201 198 193 191 195 192 192 190 202 210 211 213 213 212 210 210 214 217 215 219 222 219 213 221 227 196 208 255 294 305 281 256 252 249 257 261 260 258 255 255 257
205 204 202 200 195 195 191 171 158 158 187 201 211 216 216 213 213 213 215 216 217 219 226 223 217 219 229 219 206 206 235 260 300 289 260 252 255 258 261 261 259 258 257
211 205 201 198 194 193 185 179 181 192 207 214 210 210 207 208 214 215 217 218 220 221 226 226 220 221 222 230 222 222 227 216 252 296 291 272 265 261 263 265 265 264 263
206 196 193 184 187 188 185 187 189 202 213 210 196 199 208 210 213 215 216 217 221 222 225 226 224 223 223 228 225 219 232 236 233 253 277 283 282 261 257 258 261 267 271
188 181 177 169 183 184 181 186 190 197 200 193 200 206 213 215 216 218 218 220 223 224 225 226 226 227 228 229 230 224 217 225 229 237 258 269 273 270 263 255 257 262 267